TimePDT,TemperatureF,Dew PointF,Humidity,Sea Level PressureIn,VisibilityMPH,Wind Direction,Wind SpeedMPH,Gust SpeedMPH,PrecipitationIn,Events,Conditions,WindDirDegrees,DateUTC
12:15 AM,33.8,24.8,70,29.99,10.0,ESE,5.8,-,N/A,,Clear,110,2013-03-26 07:15:00
12:35 AM,32.0,24.8,75,29.99,10.0,East,8.1,-,N/A,,Clear,100,2013-03-26 07:35:00
12:55 AM,32.0,24.8,75,29.99,10.0,East,5.8,-,N/A,,Clear,90,2013-03-26 07:55:00
1:15 AM,30.2,23.0,75,29.99,10.0,ENE,6.9,-,N/A,,Clear,70,2013-03-26 08:15:00
1:35 AM,30.2,24.8,80,29.99,10.0,ENE,5.8,-,N/A,,Clear,70,2013-03-26 08:35:00
1:55 AM,30.2,21.2,69,29.99,10.0,ENE,9.2,-,N/A,,Clear,70,2013-03-26 08:55:00
2:15 AM,30.2,21.2,69,29.99,10.0,East,5.8,-,N/A,,Clear,80,2013-03-26 09:15:00
2:35 AM,30.2,23.0,75,29.99,10.0,ENE,9.2,-,N/A,,Partly Cloudy,70,2013-03-26 09:35:00
2:55 AM,30.2,21.2,69,29.99,10.0,East,11.5,-,N/A,,Clear,80,2013-03-26 09:55:00
3:15 AM,30.2,21.2,69,29.99,10.0,East,10.4,-,N/A,,Clear,80,2013-03-26 10:15:00
3:35 AM,30.2,21.2,69,29.99,10.0,ENE,9.2,-,N/A,,Clear,60,2013-03-26 10:35:00
3:55 AM,30.2,21.2,69,29.98,10.0,NE,10.4,-,N/A,,Clear,50,2013-03-26 10:55:00
4:15 AM,28.4,19.4,69,29.98,10.0,ENE,8.1,-,N/A,,Clear,70,2013-03-26 11:15:00
4:35 AM,28.4,21.2,74,29.98,10.0,East,8.1,-,N/A,,Clear,80,2013-03-26 11:35:00
4:55 AM,28.4,21.2,74,29.99,10.0,East,8.1,-,N/A,,Clear,80,2013-03-26 11:55:00
5:15 AM,28.4,21.2,74,29.99,10.0,East,8.1,-,N/A,,Clear,80,2013-03-26 12:15:00
5:35 AM,28.4,21.2,74,29.99,10.0,ENE,8.1,-,N/A,,Clear,70,2013-03-26 12:35:00
5:55 AM,28.4,21.2,74,30.00,10.0,ENE,10.4,-,N/A,,Mostly Cloudy,70,2013-03-26 12:55:00
6:15 AM,28.4,21.2,74,29.99,10.0,ENE,11.5,-,N/A,,Mostly Cloudy,60,2013-03-26 13:15:00
6:35 AM,28.4,21.2,74,29.99,10.0,East,10.4,-,N/A,,Mostly Cloudy,80,2013-03-26 13:35:00
6:55 AM,28.4,21.2,74,30.00,10.0,ENE,9.2,-,N/A,,Partly Cloudy,70,2013-03-26 13:55:00
7:15 AM,30.2,21.2,69,30.00,10.0,ENE,9.2,-,N/A,,Clear,60,2013-03-26 14:15:00
7:35 AM,30.2,23.0,75,30.00,10.0,ENE,11.5,-,N/A,,Clear,60,2013-03-26 14:35:00
7:55 AM,33.8,24.8,70,30.00,10.0,NE,11.5,-,N/A,,Clear,50,2013-03-26 14:55:00
8:15 AM,33.8,24.8,70,30.00,10.0,NE,12.7,-,N/A,,Clear,50,2013-03-26 15:15:00
8:35 AM,35.6,26.6,70,30.00,10.0,NE,11.5,-,N/A,,Clear,40,2013-03-26 15:35:00
8:55 AM,37.4,26.6,65,30.00,10.0,NE,15.0,-,N/A,,Clear,40,2013-03-26 15:55:00
9:15 AM,37.4,26.6,65,30.00,10.0,NE,12.7,-,N/A,,Clear,50,2013-03-26 16:15:00
9:35 AM,39.2,26.6,61,30.00,10.0,NE,15.0,-,N/A,,Clear,40,2013-03-26 16:35:00
9:55 AM,41.0,26.6,57,30.00,10.0,NNE,11.5,-,N/A,,Clear,30,2013-03-26 16:55:00
10:15 AM,42.8,26.6,53,30.00,10.0,NE,13.8,-,N/A,,Clear,40,2013-03-26 17:15:00
10:35 AM,44.6,28.4,53,30.00,10.0,NE,13.8,-,N/A,,Clear,40,2013-03-26 17:35:00
10:55 AM,44.6,28.4,53,30.00,10.0,NNE,11.5,-,N/A,,Clear,30,2013-03-26 17:55:00
11:15 AM,46.4,26.6,46,29.99,10.0,NE,9.2,-,N/A,,Clear,40,2013-03-26 18:15:00
11:35 AM,46.4,28.4,50,29.99,10.0,NNE,8.1,-,N/A,,Clear,30,2013-03-26 18:35:00
11:55 AM,50.0,30.2,47,29.99,10.0,ENE,5.8,-,N/A,,Clear,70,2013-03-26 18:55:00
12:15 PM,50.0,28.4,43,29.98,10.0,North,4.6,-,N/A,,Clear,10,2013-03-26 19:15:00
12:35 PM,51.8,28.4,41,29.98,10.0,Calm,Calm,-,N/A,,Clear,0,2013-03-26 19:35:00
12:55 PM,51.8,28.4,41,29.97,10.0,ENE,4.6,-,N/A,,Clear,60,2013-03-26 19:55:00
1:15 PM,51.8,26.6,38,29.97,10.0,WNW,4.6,-,N/A,,Clear,300,2013-03-26 20:15:00
1:35 PM,51.8,28.4,41,29.97,10.0,WNW,5.8,-,N/A,,Clear,300,2013-03-26 20:35:00
1:55 PM,53.6,30.2,41,29.96,10.0,SSW,6.9,-,N/A,,Clear,210,2013-03-26 20:55:00
2:15 PM,53.6,30.2,41,29.96,10.0,Calm,Calm,-,N/A,,Clear,0,2013-03-26 21:15:00
2:35 PM,53.6,30.2,41,29.95,10.0,West,6.9,-,N/A,,Clear,270,2013-03-26 21:35:00
2:55 PM,55.4,28.4,36,29.95,10.0,SW,4.6,-,N/A,,Clear,220,2013-03-26 21:55:00
3:15 PM,55.4,30.2,38,29.94,10.0,WNW,11.5,17.3,N/A,,Clear,300,2013-03-26 22:15:00
3:35 PM,55.4,28.4,36,29.94,10.0,West,8.1,-,N/A,,Clear,270,2013-03-26 22:35:00
3:55 PM,55.4,28.4,36,29.94,10.0,WSW,9.2,-,N/A,,Clear,250,2013-03-26 22:55:00
4:15 PM,55.4,28.4,36,29.94,10.0,WNW,5.8,-,N/A,,Clear,300,2013-03-26 23:15:00
4:35 PM,55.4,28.4,36,29.94,10.0,West,8.1,-,N/A,,Clear,270,2013-03-26 23:35:00
4:55 PM,55.4,28.4,36,29.93,10.0,WSW,4.6,-,N/A,,Clear,250,2013-03-26 23:55:00
5:15 PM,55.4,28.4,36,29.93,10.0,WSW,6.9,-,N/A,,Partly Cloudy,250,2013-03-27 00:15:00
5:35 PM,53.6,32.0,44,29.93,10.0,NNW,4.6,-,N/A,,Clear,340,2013-03-27 00:35:00
5:55 PM,53.6,28.4,38,29.93,10.0,WNW,6.9,-,N/A,,Clear,300,2013-03-27 00:55:00
6:15 PM,53.6,28.4,38,29.93,10.0,WNW,5.8,-,N/A,,Clear,300,2013-03-27 01:15:00
6:35 PM,51.8,30.2,44,29.93,10.0,NW,4.6,-,N/A,,Clear,310,2013-03-27 01:35:00
6:55 PM,50.0,30.2,47,29.93,10.0,NW,4.6,-,N/A,,Clear,310,2013-03-27 01:55:00
7:15 PM,48.2,30.2,50,29.93,10.0,Calm,Calm,-,N/A,,Clear,0,2013-03-27 02:15:00
7:35 PM,46.4,30.2,53,29.93,10.0,NW,3.5,-,N/A,,Clear,310,2013-03-27 02:35:00
7:55 PM,44.6,28.4,53,29.93,10.0,Calm,Calm,-,N/A,,Clear,0,2013-03-27 02:55:00
8:15 PM,42.8,28.4,57,29.94,10.0,East,4.6,-,N/A,,Clear,100,2013-03-27 03:15:00
8:35 PM,41.0,30.2,65,29.94,10.0,ESE,6.9,-,N/A,,Clear,110,2013-03-27 03:35:00
8:55 PM,39.2,30.2,70,29.95,10.0,Calm,Calm,-,N/A,,Clear,0,2013-03-27 03:55:00
9:15 PM,39.2,30.2,70,29.95,10.0,ESE,3.5,-,N/A,,Clear,110,2013-03-27 04:15:00
9:35 PM,37.4,28.4,70,29.95,10.0,ESE,5.8,-,N/A,,Clear,110,2013-03-27 04:35:00
9:55 PM,37.4,30.2,75,29.95,10.0,East,5.8,-,N/A,,Clear,100,2013-03-27 04:55:00
10:15 PM,37.4,28.4,70,29.96,10.0,Calm,Calm,-,N/A,,Clear,0,2013-03-27 05:15:00
10:35 PM,35.6,30.2,81,29.96,10.0,ENE,4.6,-,N/A,,Clear,70,2013-03-27 05:35:00
10:55 PM,33.8,24.8,70,29.95,10.0,ENE,3.5,-,N/A,,Clear,70,2013-03-27 05:55:00
11:15 PM,35.6,28.4,75,29.95,10.0,Calm,Calm,-,N/A,,Clear,0,2013-03-27 06:15:00
11:35 PM,35.6,28.4,75,29.95,10.0,Calm,Calm,-,N/A,,Mostly Cloudy,0,2013-03-27 06:35:00
11:55 PM,33.8,28.4,81,29.96,10.0,Calm,Calm,-,N/A,,Mostly Cloudy,0,2013-03-27 06:55:00